STARLINK-35830 (66284 NORAD) Tracking and Keplerian Element Data

This shows tracking and keplerian element data for the satellite.

Feedback or suggestion? Click here.




ElementValue
Catalog66284
NameSTARLINK-35830
Epoch Orbit875
Epoch Day353.61700459
Epoch Year2025
RAAN204.8245
Inclination53.1582
Eccentricity0.0001447
Argument of Perigee104.4816
Mean Anonmoly255.635
Mean Motion15.39635598
Decay Rate0.00024755
L11 66284U 25247V 25353.61700459 .00024755 00000+0 62653-3 0 9993
L22 66284 53.1582 204.8245 0001447 104.4816 255.6350 15.39635598 8757



Live tracking and technical data element details for STARLINK-35830 (NORAD 66284). STARLINK-35830 can be tracked NOW for your location showing map with azimuth and elevation plus other details from your city location.







IsCatalogInMostPopularTable: catalog: 66284, numindb: 10
Update: records affected: 1



GetName: 66284 STARLINK-35830

Hit Count: updated at: Tue, 21 Apr 2026 18:58:46 GMT